千帆星座-152(QIANFAN-152)

导读

QIANFAN-152(NORAD编号69111)是中国上海微小卫星工程中心研制的千帆星座组网卫星之一。千帆星座是中国低轨互联网卫星星座,该卫星运行在近地轨道,为星座提供通信组网等相关服务,目前处于在轨运行状态。 天文观测研究显示,千帆星座卫星平均视星等约5.76,部分卫星出现翻滚状态,QIANFAN-152若未进行亮度抑制,其亮度会对天文观测和夜空美学欣赏产生一定影响,当前该卫星处于稳定轨道运行中。

Basic Information
目录编号:
69111
目录名称:
QIANFAN-152
国际标识:
2026-108H
轨道中心:
EARTH
卫星名称:
千帆星座-152
卫星全名:
千帆星座-152(QIANFAN-152)
卫星状态:
在轨 (已飞行27 天)
发射日期:
2026-05-17 UTC
国别 :
中国 (CN)
星等 :
--
Orbit Information
数据来源 国际轨道数据 AOE轨道数据
星历时间 2026-06-13T02:35:58+0800
8小时前
查看轨道信息
2026-06-07T00:00:00+0800
6天前
查看轨道信息
半长轴 7237.394km 7205.462km
偏心率 0.0014039 0.0015046
轨道倾角 89.010° 89.012°
近地点辐角 102.010° 148.166°
升交点赤经 22.701° 23.381°
平近点角 258.266° 32.310°
近地点 849.096km 816.483km
远地点 869.418km 838.167km
周期 102.125分钟 101.450分钟
每日圈数 14.100338 14.194172
Detailed Information
卫星平台:
152
覆盖范围:
全球
运营商:
上海垣信卫星科技有限公司
运营商所在国:
中国
使用方式:
暂无
Satellite Introduction
千帆星座,也被称为“G60星链”计划,是中国版“星链”的重要组成部分,旨在打造一个由1.4万多颗低轨宽频多媒体卫星构成的庞大星座。千帆星座计划由上海垣信卫星科技有限公司负责实施,于2023年启动建设。该项目是我国第二个低轨卫星大星座,旨在通过构建庞大的卫星网络,为全球用户提供高质量的通信和宽带互联网服务。
2D Orbit Map
3D Orbit Map
Orbit Altitude Analysis Chart
Orbit Inclination Analysis Chart
Orbit Comprehensive Analysis Chart
View Comprehensive Chart